Regional Weather Roundup
Issued by NWS

Home | Current Version | Previous Version | Graphics & Text | Print | Product List | Glossary On
Versions: 1 2 3 4 5 6 7 8 9 10 11 12 13 14 15 16 17 18 19 20 21 22 23 24 25 26 27 28 29 30 31 32 33 34 35 36 37 38 39 40 41 42 43 44 45 46 47 48 49 50
000
ASUS43 KFSD 301902
RWRSD

WEATHER ROUNDUP FOR SOUTH DAKOTA
NATIONAL WEATHER SERVICE SIOUX FALLS SD
200 PM CDT SAT JUL 30 2016

NOTE: "FAIR" INDICATES FEW OR NO CLOUDS BELOW 12,000 FEET WITH NO
SIGNIFICANT WEATHER AND/OR OBSTRUCTIONS TO VISIBILITY.


SDZ001>005-009-010-012>017-302000-
NORTHWEST AND NORTH CENTRAL SOUTH DAKOTA

CITY           SKY/WX    TMP DP  RH WIND       PRES   REMARKS
BUFFALO          N/A     89  54  30 SE12G22   29.82F
FAITH            N/A     87  56  34 SE13G21   29.87F
MOBRIDGE       SUNNY     89  60  37 SE21G28   29.85F
$$

SDZ012>016-024>037-041>051-057-063-072>074-302000-
SOUTHWEST AND SOUTH CENTRAL SOUTH DAKOTA

CITY           SKY/WX    TMP DP  RH WIND       PRES   REMARKS
RAPID CTY ARPT SUNNY     89  58  34 S16       29.89F
PIERRE         SUNNY     87  61  41 S20G26    29.87F
CUSTER         SUNNY     81  47  30 MISG      30.04F
ELLSWORTH AFB  SUNNY     87  59  38 S14G20    29.88F
PHILIP         SUNNY     88  57  34 S14G20    29.86F
PINE RIDGE     SUNNY     88  62  41 SW9G21    29.92F
WINNER         FAIR      84  64  50 S13       29.93F
$$

SDZ004>011-016>023-039-040-302000-
NORTHEAST SOUTH DAKOTA

CITY           SKY/WX    TMP DP  RH WIND       PRES   REMARKS
ABERDEEN       SUNNY     82  59  45 S14       29.94F
WATERTOWN      SUNNY     80  58  46 S10G18    29.98F
BROOKINGS      MOSUNNY   75  60  59 SE12      29.99F
SISSETON         N/A     80  59  48 S9G18     29.96F
$$

SDZ017-020-022-023-036>040-048>070-302000-
SOUTHEAST SOUTH DAKOTA

CITY           SKY/WX    TMP DP  RH WIND       PRES   REMARKS
SIOUX FALLS    MOSUNNY   79  57  46 S8        29.99F
HURON          SUNNY     82  57  42 SE14G21   29.93F
CHAMBERLAIN    SUNNY     85  64  49 S13       29.92F
MITCHELL       MOSUNNY   83  61  47 S9G23     29.95F
YANKTON        MOSUNNY   81  61  50 SE12G18   29.96F
$$

ABBREVIATIONS USED IN REMARKS
   TC - TEMPERATURE IN CELSIUS
  WCI - WIND CHILL INDEX
   HX - HEAT INDEX
  VSB - VISIBILITY





USA.gov is the U.S. government's official web portal to all federal, state and local government web resources and services.